Preview of NWS' New Version of Forecast
This preview is not operational and should not be used for support decisions.

Regional Weather Roundup (RWR)

Issued by National Weather Service (NWS)

                            
000
ASUS45 KCYS 240910
RWRWY 

WYOMING REGIONAL WEATHER ROUNDUP
NATIONAL WEATHER SERVICE CHEYENNE WY
300 AM MDT SAT AUG 24 2019

NOTE:  "FAIR" INDICATES FEW OR NO CLOUDS BELOW 12,000 FEET
WITH NO SIGNIFICANT WEATHER AND/OR OBSTRUCTIONS TO VISIBILITY.

WYZ001-241000-
...YELLOWSTONE NATIONAL PARK...
  
CITY           SKY/WX    TMP DP  RH WIND       PRES   REMARKS
LK YELLOWSTONE   N/A     40  36  86 CALM      30.22S                  
W YELLOWSTONE  NOT AVBL                                               

$$
WYZ002>013-054>058-071-098>099-241000-
...NORTHERN WYOMING...
  
CITY           SKY/WX    TMP DP  RH WIND       PRES   REMARKS
JACKSON        CLEAR     43  35  73 N7        30.16R                  
CODY           CLEAR     54  45  71 CALM      30.02F                  
GREYBULL       CLEAR     58  50  75 SE5       29.95F                  
WORLAND        CLEAR     51  50  96 MISG      29.97F                  
SHERIDAN       PTCLDY    53  52  96 CALM      29.93F FOG              
BUFFALO        PTCLDY    53  49  86 SW5         N/A                   
GILLETTE       PTCLDY    57  52  83 CALM      29.98R                  
HULETT         FAIR      54  52  94 S5        29.99R                  
NEWCASTLE      FAIR      54  52  94 N5        30.00F                  

$$
WYZ014>020-022>026-101>103-241000-
...CENTRAL WYOMING...
  
CITY           SKY/WX    TMP DP  RH WIND       PRES   REMARKS
BIG PINEY      CLEAR     43  35  73 NW7       30.18S                  
PINEDALE       CLEAR     39  34  81 CALM      30.19R                  
DUBOIS         FAIR      43  36  75 W14       30.16S                  
LANDER         CLEAR     56  44  64 VRB6      30.05F                  
RIVERTON       CLEAR     56  46  69 W8        30.05F                  
CASPER         PTCLDY    51  48  89 NW5       30.04R                  
DOUGLAS        PTCLDY    60  49  66 SE10      30.01S                  

$$
WYZ021-027>030-104>119-241000-
...SOUTHERN WYOMING...
  
CITY           SKY/WX    TMP DP  RH WIND       PRES   REMARKS
EVANSTON       CLEAR     52  35  52 SE7       30.19S                  
KEMMERER       CLEAR     43  34  70 N8        30.20S                  
FORT BRIDGER   NOT AVBL                                               
ROCK SPRINGS   CLEAR     54  33  45 S5        30.16S                  
DIXON          FAIR      41  24  51 E13       30.18R                  
RAWLINS        CLEAR     51  42  71 W5        30.12F                  
SARATOGA       FAIR      48  32  53 W5        30.14S                  
LARAMIE        PTCLDY    54  49  83 S18       30.13F                  
CHEYENNE       PTCLDY    56  52  86 SE13      30.12R                  
TORRINGTON     MOCLDY    58  55  90 SE5       30.01R                  
PINE BLUFFS    FAIR      55  54  94 SE13      30.08F                  

$$